Location: Unspecified
(0.0000°N, 0.0000°E)
Time: 16:19:11
(UTC+00:00)

AO-7 - Visible Passes

Search period start: 11 June 2026 00:00
Search period end: 21 June 2026 00:00
Orbit: 1439 x 1459 km, 102.0° (Epoch: 11 June)

Date Brightness Start Highest point End Pass type
(mag) Time Alt. Az. Time Alt. Az. Time Alt. Az.
11 Jun ? 18:38:42 10° S 18:46:55 61° WSW 18:55:05 10° NNW visible
12 Jun ? 05:13:55 10° NE 05:20:46 29° ESE 05:27:38 10° SSE visible
12 Jun ? 19:33:22 10° SSW 19:39:28 23° WSW 19:45:35 10° WNW visible
13 Jun ? 18:31:30 10° S 18:39:48 69° WSW 18:48:04 10° NNW visible
14 Jun ? 05:07:13 10° NE 05:13:40 25° ESE 05:20:07 10° SSE visible
14 Jun ? 19:25:47 10° SSW 19:32:23 26° WSW 19:38:58 10° NW visible
15 Jun ? 18:24:19 10° SSE 18:32:41 78° WSW 18:41:01 10° NNW visible
16 Jun ? 05:00:37 10° ENE 05:06:34 22° ESE 05:12:30 10° SSE visible
16 Jun ? 19:18:17 10° SSW 19:25:17 30° WSW 19:32:16 10° NW visible
17 Jun ? 18:17:10 10° SSE 18:25:34 88° WSW 18:33:56 10° NNW visible
18 Jun ? 04:54:09 10° ENE 04:59:28 19° ESE 05:04:47 10° SSE visible
18 Jun ? 19:10:51 10° SSW 19:18:10 35° WSW 19:25:31 10° NW visible
19 Jun ? 20:08:44 10° WSW 20:10:38 11° WSW 20:12:32 10° W visible
20 Jun ? 04:47:50 10° ENE 04:52:23 16° ESE 04:56:56 10° SE visible
20 Jun ? 19:03:28 10° S 19:11:04 40° WSW 19:18:41 10° NW visible
